• en France
  • Liste des pays
  • À 7 jours
  • Température de l'eau
  • Carte satellitaire
  • Carte météo
  • Widgets météo
  • user-avatar
    Se connecter

    Météo par heure à Dromore

    Ce jour, 22 Novembre, Mercredi

    Heure Température Précipitation Vent Pression Humidité
    00:00 +9°C° 0 mm 7 m/s 735 mmHg 91%
    01:00 +9°C° 0,2 mm 6 m/s 735 mmHg 92%
    02:00 +8°C° 0,2 mm 5 m/s 734 mmHg 93%
    03:00 +8°C° 0,2 mm 5 m/s 734 mmHg 94%
    04:00 +8°C° 1,4 mm 4 m/s 733 mmHg 94%
    05:00 +9°C° 1,4 mm 3 m/s 732 mmHg 95%
    06:00 +7°C° 0 mm 2 m/s 732 mmHg 94%
    07:00 +7°C° 2,6 mm 2 m/s 731 mmHg 94%
    08:00 +7°C° 2,6 mm 2 m/s 730 mmHg 95%
    09:00 +6°C° 2,6 mm 2 m/s 729 mmHg 95%
    10:00 +5°C° 1,5 mm 3 m/s 729 mmHg 95%
    11:00 +5°C° 1,5 mm 3 m/s 728 mmHg 94%
    12:00 +5°C° 0 mm 3 m/s 728 mmHg 93%
    13:00 +5°C° 0,1 mm 3 m/s 728 mmHg 92%
    14:00 +5°C° 0,1 mm 3 m/s 727 mmHg 92%
    15:00 +6°C° 0,1 mm 2 m/s 727 mmHg 91%
    16:00 +6°C° 0,1 mm 2 m/s 727 mmHg 91%
    17:00 +6°C° 0,1 mm 2 m/s 727 mmHg 91%
    18:00 +5°C° 0,1 mm 2 m/s 726 mmHg 91%
    19:00 +5°C° 0,1 mm 2 m/s 726 mmHg 91%
    20:00 +5°C° 0,1 mm 2 m/s 726 mmHg 91%
    21:00 +4°C° 0,1 mm 2 m/s 726 mmHg 91%
    22:00 +3°C° 0,2 mm 3 m/s 725 mmHg 89%
    23:00 +3°C° 0,2 mm 3 m/s 725 mmHg 88%

    Demain, 23 Novembre, Jeudi

    Heure Température Précipitation Vent Pression Humidité
    00:00 +1°C° 0,2 mm 4 m/s 725 mmHg 86%
    01:00 +1°C° 0 mm 5 m/s 725 mmHg 87%
    02:00 +1°C° 0 mm 6 m/s 725 mmHg 88%
    03:00 -1°C° 0 mm 6 m/s 725 mmHg 88%
    04:00 0°C° 0 mm 7 m/s 725 mmHg 88%
    05:00 0°C° 0 mm 7 m/s 725 mmHg 87%
    06:00 0°C° 0 mm 7 m/s 725 mmHg 87%
    07:00 +2°C° 0,1 mm 7 m/s 726 mmHg 86%
    08:00 +1°C° 0,1 mm 8 m/s 727 mmHg 86%
    09:00 +1°C° 0,1 mm 8 m/s 728 mmHg 85%
    10:00 +2°C° 0 mm 8 m/s 730 mmHg 82%
    11:00 +2°C° 0 mm 9 m/s 732 mmHg 79%
    12:00 +2°C° 0 mm 9 m/s 734 mmHg 76%
    13:00 +2°C° 0,2 mm 8 m/s 735 mmHg 76%
    14:00 +2°C° 0,2 mm 8 m/s 736 mmHg 76%
    15:00 +2°C° 0,2 mm 7 m/s 738 mmHg 76%
    16:00 +2°C° 0,1 mm 6 m/s 739 mmHg 78%
    17:00 +1°C° 0,1 mm 6 m/s 739 mmHg 80%
    18:00 -1°C° 0,1 mm 6 m/s 740 mmHg 82%
    19:00 0°C° 0 mm 5 m/s 741 mmHg 84%
    20:00 -1°C° 0 mm 5 m/s 742 mmHg 85%
    21:00 -1°C° 0 mm 4 m/s 742 mmHg 86%
    22:00 -1°C° 0 mm 4 m/s 742 mmHg 86%
    23:00 -1°C° 0 mm 4 m/s 743 mmHg 86%

    Après-demain, 24 Novembre, Vendredi

    Heure Température Précipitation Vent Pression Humidité
    00:00 -2°C° 0 mm 4 m/s 743 mmHg 87%
    01:00 -2°C° 0 mm 4 m/s 743 mmHg 87%
    02:00 -2°C° 0 mm 4 m/s 743 mmHg 86%
    03:00 -2°C° 0 mm 4 m/s 744 mmHg 86%
    04:00 -2°C° 0 mm 4 m/s 744 mmHg 86%
    05:00 -2°C° 0 mm 4 m/s 744 mmHg 86%
    06:00 -2°C° 0 mm 4 m/s 745 mmHg 87%
    07:00 -2°C° 0 mm 5 m/s 745 mmHg 85%
    08:00 -2°C° 0 mm 5 m/s 746 mmHg 84%
    09:00 -1°C° 0 mm 5 m/s 746 mmHg 83%
    10:00 -1°C° 0 mm 6 m/s 746 mmHg 77%
    11:00 -1°C° 0 mm 6 m/s 746 mmHg 71%
    12:00 0°C° 0 mm 7 m/s 747 mmHg 66%
    13:00 0°C° 0 mm 7 m/s 747 mmHg 66%
    14:00 0°C° 0 mm 7 m/s 747 mmHg 66%
    15:00 0°C° 0 mm 7 m/s 747 mmHg 66%
    16:00 -1°C° 0 mm 7 m/s 747 mmHg 69%
    17:00 -1°C° 0 mm 6 m/s 747 mmHg 71%
    18:00 -2°C° 0 mm 6 m/s 747 mmHg 74%
    19:00 -2°C° 0 mm 7 m/s 748 mmHg 74%
    20:00 -2°C° 0 mm 7 m/s 748 mmHg 75%
    21:00 -2°C° 0 mm 7 m/s 748 mmHg 76%
    22:00 -2°C° 0,1 mm 8 m/s 748 mmHg 76%
    23:00 -2°C° 0,1 mm 8 m/s 748 mmHg 76%

    25 Novembre, Samedi

    Heure Température Précipitation Vent Pression Humidité
    00:00 -1°C° 0,1 mm 8 m/s 748 mmHg 76%
    01:00 -2°C° 0 mm 8 m/s 748 mmHg 75%
    02:00 -2°C° 0 mm 8 m/s 748 mmHg 75%
    03:00 -2°C° 0 mm 8 m/s 749 mmHg 75%
    04:00 -2°C° 0 mm 8 m/s 749 mmHg 75%
    05:00 -1°C° 0 mm 8 m/s 749 mmHg 76%
    06:00 -1°C° 0 mm 8 m/s 749 mmHg 76%
    07:00 -1°C° 0,1 mm 8 m/s 750 mmHg 76%
    08:00 -1°C° 0,1 mm 8 m/s 750 mmHg 75%
    09:00 -1°C° 0,1 mm 7 m/s 750 mmHg 75%
    10:00 -1°C° 0 mm 8 m/s 751 mmHg 73%
    11:00 0°C° 0 mm 8 m/s 751 mmHg 70%
    12:00 +1°C° 0 mm 8 m/s 751 mmHg 67%
    13:00 +1°C° 0 mm 8 m/s 751 mmHg 69%
    14:00 0°C° 0 mm 8 m/s 751 mmHg 70%
    15:00 0°C° 0 mm 8 m/s 751 mmHg 71%
    16:00 0°C° 0 mm 8 m/s 751 mmHg 73%
    17:00 0°C° 0 mm 8 m/s 752 mmHg 76%
    18:00 -1°C° 0 mm 9 m/s 752 mmHg 78%
    19:00 0°C° 0,1 mm 9 m/s 752 mmHg 79%
    20:00 0°C° 0,1 mm 9 m/s 752 mmHg 80%
    21:00 0°C° 0,1 mm 9 m/s 753 mmHg 81%
    22:00 +1°C° 0,2 mm 9 m/s 753 mmHg 81%
    23:00 +1°C° 0,2 mm 8 m/s 754 mmHg 81%

    26 Novembre, Dimanche

    Heure Température Précipitation Vent Pression Humidité
    00:00 +1°C° 0,2 mm 8 m/s 754 mmHg 81%
    01:00 +1°C° 0,2 mm 8 m/s 755 mmHg 82%
    02:00 +1°C° 0,2 mm 8 m/s 755 mmHg 83%
    03:00 +2°C° 0,2 mm 7 m/s 755 mmHg 84%
    04:00 +2°C° 0,1 mm 7 m/s 756 mmHg 84%
    05:00 0°C° 0,1 mm 7 m/s 756 mmHg 85%
    06:00 0°C° 0,1 mm 7 m/s 756 mmHg 86%
    07:00 +1°C° 0,1 mm 6 m/s 757 mmHg 86%
    08:00 +1°C° 0,1 mm 6 m/s 757 mmHg 85%
    09:00 +1°C° 0,1 mm 6 m/s 758 mmHg 85%
    10:00 +2°C° 0,1 mm 7 m/s 758 mmHg 82%
    11:00 +2°C° 0,1 mm 7 m/s 759 mmHg 80%
    12:00 +3°C° 0,1 mm 7 m/s 759 mmHg 77%
    13:00 +3°C° 0 mm 7 m/s 759 mmHg 78%
    14:00 +3°C° 0 mm 7 m/s 759 mmHg 79%
    15:00 +3°C° 0 mm 6 m/s 759 mmHg 80%
    16:00 +3°C° 0 mm 6 m/s 759 mmHg 83%
    17:00 +2°C° 0 mm 5 m/s 759 mmHg 86%
    18:00 +2°C° 0 mm 5 m/s 759 mmHg 89%
    19:00 +2°C° 0,1 mm 6 m/s 759 mmHg 89%
    20:00 +3°C° 0,1 mm 6 m/s 759 mmHg 90%
    21:00 +3°C° 0,1 mm 7 m/s 758 mmHg 90%
    22:00 +4°C° 0,9 mm 7 m/s 758 mmHg 90%
    23:00 +4°C° 0,9 mm 8 m/s 757 mmHg 90%

    27 Novembre, Lundi

    Heure Température Précipitation Vent Pression Humidité
    00:00 +5°C° 0,9 mm 9 m/s 756 mmHg 91%
    01:00 +5°C° 0,6 mm 9 m/s 756 mmHg 89%
    02:00 +5°C° 0,6 mm 9 m/s 755 mmHg 88%
    03:00 +5°C° 0,6 mm 8 m/s 755 mmHg 86%
    04:00 +5°C° 0 mm 8 m/s 755 mmHg 86%
    05:00 +4°C° 0 mm 8 m/s 755 mmHg 86%
    06:00 +4°C° 0 mm 8 m/s 755 mmHg 86%
    07:00 +3°C° 0 mm 7 m/s 756 mmHg 86%
    08:00 +3°C° 0 mm 7 m/s 756 mmHg 86%
    09:00 +3°C° 0 mm 7 m/s 757 mmHg 86%
    10:00 +4°C° 0 mm 7 m/s 757 mmHg 84%
    11:00 +4°C° 0 mm 7 m/s 757 mmHg 82%
    12:00 +5°C° 0 mm 7 m/s 757 mmHg 80%
    13:00 +5°C° 0 mm 7 m/s 757 mmHg 81%
    14:00 +4°C° 0 mm 7 m/s 757 mmHg 82%
    15:00 +4°C° 0 mm 7 m/s 756 mmHg 83%
    16:00 +4°C° 0,1 mm 7 m/s 756 mmHg 86%
    17:00 +4°C° 0,1 mm 6 m/s 756 mmHg 88%
    18:00 +3°C° 0,1 mm 6 m/s 756 mmHg 90%
    19:00 +4°C° 0 mm 6 m/s 756 mmHg 90%
    20:00 +4°C° 0 mm 6 m/s 756 mmHg 91%
    21:00 +4°C° 0 mm 6 m/s 756 mmHg 91%
    22:00 +3°C° 0 mm 6 m/s 756 mmHg 92%
    23:00 +3°C° 0 mm 6 m/s 755 mmHg 92%
    Voir plus